Wind_Speed
4 4 1 4 5 6 7 7 7 5 6 6 5 4 2 3 1 3 1 4 1 2 5 6 6 9 9 10 11 9 7 7 9 10 9 9 8 8 9 10 10 10 11 14 19 26 30 33 34 34 34 34 34 34 36 37 38 38 38 37 38 38 38 38 38 39 39 39 37 35 35 35 34 33 32 32 32 32 33 34 33 32 31 30 30 31
5 4 5 7 8 8 6 6 6 4 5 6 5 5 3 1 1 3 1 5 3 2 5 4 5 11 9 9 11 8 8 8 10 11 11 12 10 8 9 12 12 9 8 8 13 19 25 29 31 32 32 33 34 35 37 38 39 39 38 38 39 38 38 39 40 40 41 42 41 40 40 38 36 35 34 33 33 33 34 34 35 34 32 31 31 31
4 2 7 8 7 5 3 4 8 6 6 5 4 5 2 1 1 3 3 4 2 2 4 5 6 12 11 9 11 11 11 10 11 12 12 12 10 9 11 12 11 9 8 8 9 13 21 26 28 29 31 34 35 36 37 37 38 38 38 38 39 39 40 40 40 40 41 41 41 40 38 37 36 35 35 34 32 32 32 34 35 35 35 34 33 33
2 5 8 6 5 7 4 4 8 6 4 4 4 4 1 3 1 2 4 4 1 1 2 4 6 10 10 7 10 12 11 10 10 11 11 10 10 12 13 11 10 10 10 10 10 9 14 20 23 27 31 33 33 32 33 33 33 35 37 38 38 38 39 39 39 39 39 38 37 36 34 32 33 33 33 33 32 31 32 33 34 36 36 35 35 34
4 6 4 1 4 7 5 3 6 5 1 1 3 5 3 2 2 2 2 3 3 3 2 4 5 8 6 5 7 7 5 7 8 8 9 10 11 12 11 10 9 10 10 10 10 8 9 15 22 27 30 31 31 31 33 34 34 35 36 36 36 36 36 37 36 36 36 34 32 32 29 26 27 28 29 31 33 33 33 34 35 36 37 36 35 36
5 5 0 3 3 5 6 3 3 6 2 3 1 4 6 5 5 2 3 5 5 5 4 4 4 6 5 5 8 8 6 7 6 4 8 10 9 9 10 10 9 7 8 8 9 8 9 14 19 23 25 26 29 32 33 34 34 34 34 34 34 34 34 35 35 34 34 33 32 31 29 27 26 27 29 33 36 37 36 36 36 35 36 36 35 35
2 2 3 4 4 6 6 2 3 5 5 1 3 3 5 7 7 4 3 4 1 3 3 3 3 5 8 6 8 6 6 9 8 7 7 8 8 9 10 9 7 6 7 6 6 5 8 12 15 18 22 25 28 31 32 31 31 32 32 32 33 33 33 34 34 34 34 34 33 33 33 32 31 30 32 34 35 35 36 36 35 34 34 35 36 36
1 2 5 5 6 6 5 2 3 5 7 2 4 3 5 7 6 5 6 3 2 2 4 4 4 2 8 6 5 2 6 9 10 10 10 8 9 11 9 6 6 8 7 6 6 5 8 12 16 19 22 25 27 29 28 28 29 30 30 31 31 32 32 32 33 33 34 35 35 35 34 34 34 34 34 33 32 32 32 33 34 34 34 34 35 37
1 3 3 5 6 3 3 3 3 5 6 4 5 4 5 7 6 5 7 3 1 2 5 5 2 2 7 7 3 4 5 9 10 10 11 10 10 10 8 6 7 8 6 6 7 6 7 13 18 20 21 24 26 26 26 27 27 28 29 29 29 30 31 31 32 33 34 35 36 35 35 35 35 35 33 31 29 29 29 30 32 33 33 34 35 36
0 4 5 6 5 3 4 2 2 4 4 3 3 5 5 5 5 5 5 3 3 2 4 6 2 2 6 8 5 4 3 7 9 9 8 8 8 8 6 4 4 2 1 2 3 4 7 12 17 18 19 21 23 23 23 24 25 26 27 28 29 30 31 31 32 33 34 35 35 36 36 36 35 34 31 29 28 28 28 30 31 32 33 34 35 36
2 1 2 3 3 5 5 2 2 3 4 4 5 7 7 6 5 4 3 4 3 3 6 8 6 5 4 7 4 3 4 6 6 6 5 4 5 2 1 4 5 4 3 3 3 3 5 8 12 15 16 17 19 20 21 22 23 25 26 28 29 29 30 31 31 32 33 34 35 37 37 37 36 34 32 30 30 29 29 31 32 33 34 34 35 36
5 3 0 1 1 3 6 4 4 4 4 6 5 5 4 4 5 5 5 4 1 5 7 6 4 5 5 7 5 5 6 6 5 5 4 4 3 0 2 2 2 3 3 4 4 3 4 6 9 12 15 16 17 19 21 23 23 24 26 28 28 29 29 31 31 32 33 34 35 36 37 37 36 35 34 33 33 32 32 32 32 32 33 33 34 35
4 2 2 2 2 3 6 5 5 6 5 5 5 6 4 2 3 3 3 0 3 6 5 4 1 3 7 7 7 10 11 8 5 4 5 6 5 4 3 2 2 4 4 4 4 4 4 4 8 12 15 17 19 21 22 23 24 25 26 27 29 30 30 30 31 32 32 34 35 36 36 36 35 35 35 35 35 34 34 33 32 31 32 32 32 34
2 5 2 2 3 2 6 5 2 1 0 4 5 5 5 3 1 3 3 2 4 5 4 3 2 4 5 4 9 14 13 7 3 5 6 6 6 5 4 4 4 4 3 4 4 5 4 6 9 12 15 18 21 23 23 23 24 25 26 28 29 30 30 30 31 32 33 34 35 35 35 35 35 35 36 36 36 35 35 34 34 34 33 34 34 34
3 4 3 5 3 4 7 6 7 6 4 5 5 6 6 5 5 4 3 3 4 4 3 3 2 3 2 3 6 9 9 7 5 4 3 2 3 3 3 4 4 3 4 4 5 6 6 9 13 15 16 18 21 22 23 23 24 25 27 29 30 31 31 31 32 33 34 35 34 34 35 35 36 36 36 36 36 35 35 34 34 35 34 35 35 34
4 5 6 4 3 8 9 5 6 7 1 3 3 5 4 5 5 3 3 5 3 1 2 2 3 4 4 6 8 7 8 8 7 5 3 3 2 0 2 4 4 5 6 6 6 6 8 11 14 16 17 19 20 20 21 23 25 27 28 29 31 31 31 32 33 34 34 34 34 34 35 35 35 35 35 35 35 35 34 34 33 34 34 35 34 34
3 4 5 0 0 5 7 3 4 4 2 2 2 4 5 5 7 4 3 0 3 2 4 2 5 5 3 7 9 7 7 8 8 8 6 5 1 0 4 5 5 6 6 6 7 7 7 10 13 16 18 20 21 21 23 25 26 28 29 29 30 30 30 32 34 35 35 34 34 35 35 35 35 35 36 36 36 35 33 33 33 33 33 33 34 34
5 2 4 1 2 4 2 4 2 2 3 5 3 6 3 2 4 4 1 3 2 3 4 2 6 5 2 5 6 4 4 6 8 7 7 6 4 4 6 6 6 7 6 6 6 6 7 10 14 18 21 23 23 23 24 25 26 27 28 29 30 30 31 32 33 35 35 35 35 35 34 34 35 35 35 35 35 34 33 33 33 32 32 32 32 32
4 2 5 1 2 5 3 4 0 4 2 5 4 4 3 2 1 1 2 2 1 3 5 4 5 4 5 6 3 4 6 9 10 8 7 6 6 4 5 6 7 6 5 6 6 6 7 9 15 18 20 21 22 22 23 23 24 26 27 28 29 30 30 30 32 34 35 35 35 34 33 33 33 33 33 34 33 33 34 35 35 34 33 32 31 31
3 3 4 2 1 2 4 2 5 2 2 2 1 1 2 3 4 3 3 3 3 3 4 4 3 4 6 6 5 7 10 10 9 6 2 3 2 4 6 6 6 4 4 5 5 6 7 10 16 17 17 18 18 19 20 21 22 25 26 28 29 30 29 29 31 34 35 36 35 34 33 32 32 32 32 32 32 33 34 34 35 35 34 32 31 30
2 2 4 3 3 0 1 3 7 7 4 3 3 3 2 1 2 2 2 2 4 4 3 3 5 7 5 5 7 8 7 7 6 3 3 2 4 6 6 6 6 4 3 4 5 6 7 9 13 14 15 16 16 17 18 19 21 23 25 27 28 29 30 31 33 34 36 36 35 34 33 33 32 31 31 31 31 33 34 33 34 34 33 33 32 31
2 2 3 2 1 3 6 6 7 10 9 7 6 7 7 5 4 2 3 2 2 4 5 3 6 11 6 5 5 6 5 5 5 3 1 3 6 6 6 6 6 5 6 6 6 6 5 5 8 10 12 13 14 16 17 18 20 21 24 26 28 30 32 33 33 34 35 35 35 34 33 33 31 30 30 31 32 33 33 33 33 33 32 33 33 32
3 4 4 3 3 5 7 6 3 5 4 3 4 5 4 4 5 6 5 4 0 3 3 3 5 12 4 7 6 7 6 4 4 4 6 6 6 8 8 9 8 6 7 7 7 7 6 6 7 9 11 12 14 16 17 19 20 22 24 26 28 32 34 33 32 32 32 33 35 35 33 32 32 30 30 31 32 33 33 33 32 32 32 32 32 32
2 3 3 2 3 3 4 5 4 2 2 1 3 3 3 3 4 5 5 4 2 4 3 2 6 11 3 7 5 3 1 2 4 5 6 6 7 7 7 8 7 7 8 8 7 7 8 8 8 9 11 13 15 17 18 20 21 23 26 28 30 34 35 33 31 30 30 32 34 34 33 33 32 31 32 33 33 33 33 33 32 31 31 31 31 31
3 3 4 3 1 3 4 4 4 4 1 2 3 3 5 6 5 3 2 2 1 5 6 5 8 11 4 5 5 3 4 6 6 6 5 4 5 6 6 7 7 8 8 9 9 8 8 8 9 10 13 15 17 19 20 21 23 26 28 29 32 35 35 32 30 29 30 32 34 34 34 34 34 34 34 34 34 33 33 33 32 32 31 31 31 31
3 3 4 5 5 5 3 3 4 2 1 2 3 5 6 7 9 5 2 3 5 7 7 6 8 12 12 4 3 1 4 7 6 7 5 4 5 6 6 6 6 7 8 9 9 9 9 8 9 12 15 16 17 19 19 20 24 27 29 31 33 35 34 32 30 30 31 33 34 34 35 35 36 36 36 35 34 33 32 32 32 32 32 31 31 31
3 1 3 5 6 7 6 5 4 3 4 3 4 5 5 5 8 7 4 5 8 7 6 9 10 15 21 17 11 7 1 4 2 6 6 6 6 5 5 6 6 6 7 8 8 9 9 9 10 12 15 17 17 19 20 21 25 28 30 32 33 33 32 32 31 31 32 33 33 34 36 37 38 38 37 36 34 32 32 32 32 32 32 31 31 31
4 1 2 4 4 6 6 4 3 5 3 4 3 2 1 1 4 6 6 8 7 5 9 12 10 13 21 21 18 11 1 3 6 6 5 6 6 6 6 6 7 7 8 8 9 10 10 10 10 11 15 19 21 23 26 27 29 29 29 31 32 31 31 32 32 32 32 32 33 35 38 38 38 38 37 35 33 32 32 32 32 32 31 31 32 32
5 2 3 1 4 5 4 5 3 4 3 3 3 3 3 3 5 7 11 10 6 6 11 10 7 10 16 19 20 12 1 3 7 7 6 6 6 7 8 8 9 10 10 10 10 10 10 10 9 10 15 20 22 25 28 30 32 31 29 32 32 32 32 32 32 32 32 33 34 37 39 39 38 38 37 35 34 33 32 31 31 31 31 32 32 32
4 3 4 3 5 8 8 8 5 4 4 4 5 5 4 5 8 9 11 11 7 7 11 12 11 13 15 15 18 15 7 4 6 7 8 9 7 7 8 9 9 10 10 10 9 8 9 10 10 12 16 20 22 25 27 29 32 31 31 33 32 32 33 32 31 32 33 34 37 38 39 38 37 37 36 35 34 33 32 31 30 30 31 31 32 31
2 4 4 5 4 10 12 11 8 6 7 7 6 6 6 9 11 11 10 8 6 8 12 12 13 16 14 8 11 17 13 5 5 9 12 11 8 6 6 8 10 11 10 9 9 9 9 9 10 11 15 19 23 26 28 29 31 31 31 32 33 35 35 32 32 33 34 37 39 38 37 38 37 36 35 34 34 33 31 30 29 29 30 30 30 30
3 2 2 5 4 8 10 9 8 4 2 5 9 12 14 14 13 14 11 7 8 11 13 10 9 13 11 4 5 13 14 10 11 13 13 13 8 4 5 9 10 11 10 9 8 9 9 9 10 11 14 19 24 26 28 30 31 31 32 33 35 36 34 32 32 34 36 38 39 37 36 37 36 35 34 34 33 32 30 29 28 29 30 30 30 30
4 4 3 5 5 7 5 5 5 4 3 5 12 15 17 16 16 15 13 12 14 13 10 9 9 11 10 6 7 13 16 16 15 13 12 12 7 2 5 10 10 10 10 10 10 10 9 9 10 13 16 19 23 25 28 30 30 31 33 34 35 34 32 31 32 34 36 38 38 38 36 35 34 33 33 32 31 30 28 27 28 29 30 30 30 29
5 5 4 5 4 6 3 7 6 3 5 9 8 8 13 17 17 16 16 19 18 12 8 9 10 11 11 11 13 15 16 15 14 13 12 8 5 3 8 9 8 8 8 10 11 10 9 10 13 16 18 19 21 23 26 27 27 30 32 33 34 33 31 31 31 33 35 36 36 36 34 32 32 32 31 30 29 28 28 27 28 29 29 30 29 29
5 5 3 3 3 3 3 6 4 6 8 7 3 5 11 14 15 16 17 18 15 11 10 11 13 15 16 15 14 13 12 11 12 13 10 6 5 4 7 7 8 9 8 9 10 10 10 12 15 18 20 22 23 22 23 25 26 27 28 30 31 31 31 30 30 30 32 33 33 33 32 31 31 30 29 27 27 27 27 27 27 28 29 29 29 29
5 4 2 2 3 2 3 5 6 4 3 6 7 5 4 4 6 9 11 13 12 11 11 13 15 16 14 12 10 8 9 9 8 6 4 6 6 7 7 7 8 9 8 8 9 10 12 15 17 20 23 25 26 26 26 26 25 25 26 27 27 28 28 28 28 29 30 31 31 31 30 29 29 28 27 26 26 26 26 26 26 27 28 28 28 28
6 4 2 1 3 3 3 4 3 3 6 9 10 5 3 3 5 6 6 7 5 4 6 8 9 8 7 7 7 8 8 8 7 3 5 10 12 10 9 8 8 8 11 13 15 16 18 21 23 24 26 27 28 29 28 27 25 23 24 24 23 23 24 24 26 29 30 30 30 29 28 27 26 26 26 25 25 25 25 25 26 27 27 27 27 27
7 6 4 3 3 3 3 5 3 2 7 11 9 5 4 6 7 8 6 4 2 4 2 2 0 4 5 5 7 8 7 6 6 5 5 11 13 12 11 12 12 12 14 18 21 22 23 25 26 28 29 29 31 32 29 27 24 22 22 23 21 21 21 23 27 29 29 29 29 27 26 25 24 24 24 24 24 24 24 25 26 26 26 27 27 27
9 6 5 4 4 4 4 5 5 5 7 8 7 5 5 5 6 8 4 4 1 3 2 4 3 3 4 4 5 5 6 5 6 6 5 9 12 12 11 12 14 17 19 21 22 23 25 26 25 27 29 28 31 32 29 25 23 20 21 23 21 20 22 25 28 28 28 28 27 25 24 23 23 23 23 23 23 24 25 25 25 25 25 26 25 25
8 5 5 6 7 7 6 5 5 4 6 6 5 4 4 1 6 5 4 4 3 5 4 2 2 5 4 4 2 4 3 2 6 8 8 9 11 13 12 12 13 16 18 21 23 24 26 26 24 25 26 27 29 31 28 24 22 20 23 23 21 21 25 28 28 26 25 24 23 22 22 22 22 23 23 23 24 24 24 24 23 23 23 23 22 22
5 4 6 7 8 9 10 7 5 5 6 6 6 6 5 2 4 1 5 3 5 6 5 3 3 6 4 2 1 1 2 5 7 9 10 9 9 12 15 17 20 21 20 20 21 22 25 27 26 26 27 27 28 28 27 24 21 22 24 22 22 24 26 26 24 22 21 20 19 19 19 20 20 21 21 22 22 22 21 21 21 21 21 21 20 20
5 4 4 7 8 8 8 7 6 6 4 2 3 4 3 4 3 5 3 3 5 6 5 5 5 5 4 4 3 4 6 7 8 9 10 9 8 9 13 16 20 23 25 28 28 25 24 27 28 29 30 31 28 26 24 22 22 25 24 22 24 26 24 21 19 18 17 17 16 16 17 17 18 18 18 19 19 19 19 19 19 19 20 20 19 18
6 4 3 6 7 5 5 6 6 6 3 2 1 1 2 3 4 3 2 2 4 5 5 5 6 5 4 4 6 6 7 8 9 9 10 10 9 9 12 14 15 18 22 25 27 28 27 26 27 29 31 32 29 26 22 20 22 25 23 23 25 23 18 16 15 14 14 14 14 15 15 15 16 16 16 17 18 18 18 18 18 19 19 19 19 19
4 5 4 4 5 4 5 6 4 3 2 1 2 3 2 3 4 5 4 2 3 4 4 5 5 6 6 5 6 7 8 9 9 9 10 11 12 11 12 15 17 20 22 22 22 25 25 25 27 30 33 32 29 25 22 19 20 23 23 23 22 17 13 13 12 13 13 13 13 14 14 14 14 14 15 16 18 19 20 20 20 20 20 20 20 20
5 5 5 4 3 3 5 4 3 3 2 0 2 4 5 4 3 6 5 3 2 4 3 2 4 5 5 5 6 6 7 8 9 10 10 10 11 11 12 15 18 21 24 24 23 22 21 22 25 28 32 34 29 24 22 20 19 21 22 21 17 14 13 12 12 13 13 13 13 13 13 13 13 14 15 16 18 20 21 22 22 21 21 21 21 20
4 2 3 2 3 4 3 2 3 3 2 1 1 3 5 4 2 4 5 3 3 4 3 3 5 5 4 5 5 5 7 8 9 10 10 10 11 12 12 15 20 22 24 25 25 24 22 22 23 24 27 32 30 24 21 20 18 20 22 19 15 13 13 12 13 13 13 14 14 14 14 14 14 15 16 17 17 18 20 22 22 22 21 21 20 20
3 2 2 1 3 4 3 1 4 4 2 2 4 4 1 1 2 4 5 5 5 5 5 5 5 5 4 5 5 6 8 9 9 10 10 9 11 12 11 13 18 22 23 24 26 27 24 22 22 22 23 27 29 25 21 20 19 20 20 17 15 14 13 13 14 14 14 14 15 15 16 17 17 17 17 17 17 18 19 20 21 22 22 21 20 20
2 2 2 3 4 4 3 3 3 3 4 5 4 1 2 2 3 4 4 4 4 4 5 4 4 4 5 4 4 5 7 8 9 9 10 9 10 11 11 13 18 22 24 25 26 26 24 22 22 22 21 24 26 24 21 20 20 18 17 16 15 14 14 14 14 14 15 15 16 17 17 18 19 19 18 17 17 18 19 19 20 21 21 21 22 22
2 2 3 3 1 1 4 5 2 2 4 5 2 2 2 2 2 2 3 3 4 5 6 6 5 5 6 6 5 4 5 8 9 8 10 10 10 10 13 17 21 24 25 26 25 24 24 24 24 24 24 24 23 21 19 20 19 17 15 14 14 15 15 15 14 15 16 16 17 17 18 19 19 19 19 18 17 17 17 18 19 20 19 19 19 19
3 4 3 3 2 2 5 4 1 1 2 5 5 6 6 3 4 4 4 4 5 5 5 7 8 7 7 7 6 5 6 7 8 8 9 9 10 13 17 20 23 25 27 28 26 25 25 24 24 24 26 26 22 18 17 18 17 16 15 14 14 15 16 16 16 16 16 17 17 18 19 19 20 21 21 20 19 18 16 14 15 16 16 16 15 14
5 6 5 4 4 4 6 6 4 3 3 6 7 4 5 7 7 6 5 5 5 6 6 7 8 8 9 9 9 7 6 7 9 9 8 10 14 18 20 21 22 23 26 28 27 26 27 26 24 24 25 25 22 18 16 15 14 14 14 14 15 16 17 18 17 17 16 17 18 19 19 21 22 22 22 22 22 21 20 17 14 11 11 12 11 10
Wind_Direction
87 84 147 182 193 210 211 185 175 181 145 131 123 108 146 143 311 285 279 306 336 113 257 245 258 270 265 269 271 270 267 247 243 247 247 245 242 239 236 238 234 228 237 235 224 221 218 217 216 214 214 214 212 212 212 210 210 211 211 211 212 214 214 212 212 211 210 210 210 210 213 216 216 217 220 223 224 224 224 224 224 224 224 224 222 221
67 102 212 216 201 197 208 185 144 113 85 90 102 78 31 116 198 271 267 302 349 80 273 301 307 279 267 266 269 270 267 253 236 234 241 239 236 238 237 241 240 239 252 241 225 222 218 217 214 211 210 209 209 209 210 210 211 211 210 211 213 213 212 212 213 212 211 212 212 212 215 217 217 218 220 223 223 222 222 224 225 225 226 227 226 224
56 192 235 232 202 146 101 106 104 92 82 78 94 90 22 281 188 294 315 307 7 101 274 334 333 284 271 259 259 258 248 245 237 231 238 238 234 239 236 239 243 246 255 247 234 222 214 213 210 207 207 208 210 210 209 211 211 209 209 212 215 214 213 214 214 213 213 214 214 215 217 218 219 220 220 222 223 222 221 222 224 226 227 228 229 227
118 242 245 234 175 118 72 67 85 78 75 81 97 108 251 269 165 275 300 296 290 138 272 336 319 283 284 272 258 256 249 253 255 243 243 241 233 237 237 237 235 234 240 242 245 232 210 207 204 204 206 208 209 208 208 210 210 209 210 212 214 215 215 214 214 215 215 215 215 217 220 221 222 222 221 222 224 225 224 223 224 226 228 229 229 228
207 254 255 144 123 121 109 73 85 95 36 328 132 137 197 245 151 192 280 316 343 358 1 7 327 289 303 320 286 281 272 262 261 248 245 244 238 242 251 250 233 224 227 229 236 231 200 197 199 202 206 206 206 207 209 210 211 211 212 214 215 216 216 215 215 215 215 215 215 216 219 221 223 223 222 222 223 225 225 226 226 226 227 228 229 230
235 268 230 128 102 94 109 116 137 136 118 313 229 173 185 167 139 128 21 27 26 343 328 38 2 291 303 317 289 299 313 288 292 280 248 250 252 249 253 251 237 229 230 228 232 220 195 195 198 202 205 204 205 209 212 213 213 214 215 216 217 218 218 218 217 217 216 216 216 214 212 213 214 216 218 220 221 222 223 226 228 228 229 229 228 229
239 335 68 128 125 82 87 114 226 141 113 294 250 194 162 127 118 119 69 52 63 270 288 66 95 272 300 295 258 273 309 302 309 306 271 262 259 247 243 242 237 238 237 240 247 217 193 196 196 201 205 204 207 212 214 215 215 216 218 219 219 220 220 220 219 218 217 217 217 216 215 214 214 215 219 221 223 224 224 227 229 230 231 230 228 226
174 60 55 80 88 81 97 145 243 131 115 223 241 159 115 104 117 133 108 107 216 254 321 14 109 220 293 279 240 291 326 311 303 296 285 268 251 248 252 250 243 244 231 222 229 209 194 198 198 203 206 207 211 214 214 215 216 217 220 221 221 221 221 221 220 219 218 217 217 217 217 218 219 222 225 226 226 228 228 229 231 232 232 231 230 227
147 151 160 110 85 87 159 214 254 117 113 234 225 144 111 115 130 120 101 102 2 23 321 314 102 173 274 275 303 355 322 296 287 278 275 268 260 261 264 255 247 251 233 207 216 210 198 201 204 208 211 212 215 217 217 218 219 220 221 221 221 221 221 221 220 219 219 219 219 218 218 220 223 226 229 230 230 230 229 230 231 232 232 231 231 229
89 177 186 133 118 173 197 247 273 123 132 214 168 90 63 73 78 78 97 102 42 30 256 254 197 179 267 277 301 349 292 265 272 273 268 272 280 275 256 220 203 222 174 169 201 192 186 199 207 209 212 216 218 220 222 222 222 221 220 219 219 220 220 220 220 219 219 219 220 220 220 221 223 225 227 230 232 231 229 229 229 230 231 232 232 231
324 230 169 112 151 180 155 108 21 98 126 122 88 59 39 26 33 41 61 80 59 291 251 237 206 185 266 280 255 231 227 225 251 282 283 291 321 337 157 161 157 131 109 118 117 125 147 173 194 200 205 213 216 219 221 221 221 220 218 217 217 219 219 219 219 218 219 219 220 222 223 223 225 225 225 227 229 230 228 228 229 231 233 233 233 233
345 6 239 337 284 133 103 64 14 16 71 88 80 78 58 356 11 17 3 46 98 257 261 260 223 177 230 263 248 250 263 243 245 278 275 263 293 304 157 179 184 172 177 169 150 145 138 145 170 188 198 205 209 212 215 217 217 217 216 215 216 217 217 217 218 218 219 219 220 223 225 226 227 227 226 226 227 228 228 229 231 232 234 235 234 234
333 287 253 344 329 130 104 69 14 355 24 72 91 97 87 351 9 1 313 229 226 247 260 293 307 206 232 247 253 264 269 257 249 264 238 219 237 248 248 276 255 220 214 201 180 190 199 188 188 191 194 198 203 209 213 214 214 214 214 214 215 217 216 216 217 218 219 220 222 224 225 227 229 229 229 229 230 230 231 232 232 232 232 232 232 232
298 305 317 57 316 208 138 129 130 296 173 135 138 131 132 137 136 254 259 267 267 257 269 309 300 262 277 263 238 247 260 266 271 259 232 206 215 237 248 248 241 234 232 229 219 216 224 232 225 213 204 201 204 209 211 212 213 212 213 214 216 218 217 216 217 218 220 222 224 225 227 229 229 230 231 232 233 233 234 235 235 235 234 232 232 232
190 289 230 178 218 191 175 178 163 154 170 184 156 135 153 162 164 200 207 212 247 270 290 296 256 209 229 273 239 235 259 278 284 272 269 278 251 238 241 244 255 271 259 242 230 226 226 230 232 229 221 215 213 211 211 212 213 213 214 215 217 218 217 217 218 219 221 223 225 227 228 230 231 232 233 234 236 236 236 237 238 237 236 235 236 236
171 250 239 204 183 172 181 199 148 122 130 233 140 115 179 190 154 153 193 183 178 296 294 251 236 212 213 275 277 259 266 281 294 298 310 310 296 203 252 262 277 273 253 237 229 233 234 230 231 232 230 229 226 221 218 218 217 216 217 217 218 220 219 219 220 221 223 225 226 228 229 230 231 233 234 236 237 237 237 238 239 239 239 239 239 239
156 269 278 326 74 182 178 177 148 140 186 204 146 179 216 180 128 126 259 344 93 253 268 209 250 284 320 291 279 269 274 296 312 306 283 268 258 278 279 281 280 263 248 237 227 229 235 234 236 235 234 234 233 232 230 228 225 223 222 221 220 222 222 222 223 223 225 226 227 229 230 231 232 233 235 236 237 237 238 239 240 241 241 240 240 239
151 239 300 96 195 258 199 127 73 22 133 133 183 215 204 92 90 111 222 346 37 251 275 245 246 280 314 277 299 351 329 299 301 297 290 306 2 352 309 296 274 259 255 253 245 247 246 237 237 235 236 238 238 240 240 238 234 230 228 227 225 224 224 224 224 225 226 226 227 229 230 231 233 234 236 238 239 239 238 238 238 239 240 240 239 239
142 189 300 42 189 287 357 117 183 336 69 135 186 192 120 118 237 117 159 202 189 246 279 275 259 255 217 229 293 323 292 287 289 284 288 329 23 359 293 275 272 278 282 276 265 266 261 249 248 244 242 243 242 244 246 244 239 234 233 232 231 231 231 229 227 227 228 228 228 230 232 233 235 236 238 239 240 240 239 239 238 237 238 238 238 238
131 176 263 327 242 303 9 139 193 262 346 39 100 124 98 139 172 170 172 169 162 206 262 278 285 257 224 198 187 223 249 261 269 279 308 61 49 286 278 287 303 305 274 265 261 265 264 257 259 258 255 253 249 247 247 244 241 238 237 236 235 236 235 233 231 229 229 229 229 231 233 235 236 237 239 240 241 241 240 240 240 239 239 238 238 238
106 179 223 299 334 96 185 216 183 171 173 167 161 184 198 94 110 183 192 138 143 171 216 257 273 264 235 192 187 204 226 224 204 164 127 158 270 287 294 299 306 305 271 262 254 252 256 259 265 267 264 260 256 253 250 246 245 244 242 239 239 239 237 235 234 231 230 230 229 230 232 234 236 237 239 241 242 242 242 242 242 241 241 239 238 238
178 181 167 183 294 194 226 243 197 183 185 177 179 190 189 160 131 160 242 252 146 177 184 182 269 272 239 180 186 177 164 159 146 116 41 304 310 328 326 307 316 337 333 319 294 275 277 280 276 269 260 255 253 252 249 246 246 246 245 243 243 242 240 238 236 234 233 232 230 231 232 234 236 237 239 240 242 243 243 243 242 242 242 242 241 239
156 115 119 180 217 213 241 265 217 190 190 175 190 187 172 160 145 156 212 241 206 231 211 135 263 272 234 142 154 165 161 139 97 40 6 341 330 341 337 330 336 330 311 304 296 300 317 313 287 267 256 252 251 250 247 244 243 244 245 245 244 243 242 241 239 239 238 236 236 235 234 235 235 236 237 239 241 243 243 242 242 242 242 243 243 240
144 113 129 226 302 316 307 328 359 30 92 167 225 173 139 179 171 154 179 183 161 222 218 143 250 266 237 141 161 197 216 52 54 36 16 348 331 334 324 314 314 308 303 299 299 311 316 305 287 266 254 250 249 247 244 241 240 241 244 244 243 243 243 242 240 240 241 241 242 241 239 237 236 235 236 238 240 242 242 241 240 241 242 242 242 240
192 171 139 129 352 334 337 340 337 345 15 209 232 198 181 178 152 130 161 150 204 219 187 171 240 261 252 134 114 44 36 42 21 3 5 339 311 302 295 297 301 306 309 306 308 316 309 296 284 271 260 254 252 249 245 244 242 241 243 244 244 244 244 242 240 240 241 242 243 243 242 241 239 236 236 237 239 240 240 240 240 240 241 241 240 239
162 172 152 155 192 218 220 210 226 250 205 211 232 208 196 171 156 162 168 171 228 227 193 192 238 261 266 233 150 49 55 58 2 326 315 279 267 270 277 287 293 297 297 295 297 297 292 284 277 272 265 257 253 250 250 255 255 249 246 246 246 244 244 243 241 240 241 241 241 242 243 243 241 239 238 238 238 238 239 239 239 240 240 239 238 238
116 161 173 164 196 205 193 199 194 146 142 194 239 226 211 184 173 165 147 185 218 224 221 228 232 253 267 264 252 257 90 95 267 283 290 286 281 276 270 269 271 274 276 279 277 274 275 275 271 272 272 268 266 266 269 273 269 260 252 252 250 247 246 246 244 242 241 240 240 242 244 244 244 243 242 241 240 239 239 239 238 239 238 238 238 238
106 277 218 147 193 198 182 191 138 102 143 197 205 223 250 226 181 177 201 212 197 197 238 239 220 240 265 270 269 270 177 143 242 254 261 271 277 278 283 289 287 279 271 266 263 263 264 266 271 275 277 278 281 284 286 285 280 271 261 259 258 254 252 251 246 243 242 240 239 241 244 245 246 246 245 244 243 242 240 239 238 238 238 238 237 238
115 249 258 168 243 232 212 224 166 128 183 195 187 213 211 199 190 203 231 233 190 196 246 250 212 228 257 269 275 280 238 198 254 255 246 254 266 277 288 294 289 284 278 267 260 261 261 264 270 272 275 279 283 285 285 284 283 280 272 267 263 258 256 254 248 243 241 239 239 243 247 246 245 246 246 245 244 242 241 239 238 237 236 238 238 238
136 220 227 193 259 265 253 249 234 203 212 208 220 233 223 221 218 214 233 243 232 236 259 267 259 253 255 267 282 289 282 250 263 270 267 265 264 268 278 283 278 274 274 269 264 261 262 266 271 275 279 281 282 282 281 281 281 281 279 277 271 264 262 257 249 245 241 238 241 247 248 245 244 245 244 243 242 242 240 238 237 235 235 237 239 237
183 209 191 156 223 262 256 250 248 239 235 235 241 247 250 253 251 242 237 239 246 254 258 264 272 270 264 262 282 287 290 292 277 275 277 278 274 262 265 274 275 273 274 276 274 266 262 264 267 273 277 278 281 282 281 281 282 281 281 281 277 274 271 262 253 248 244 243 245 247 244 242 242 242 242 241 241 241 239 237 235 234 234 235 236 234
175 179 143 132 187 245 246 236 230 217 223 252 251 242 237 240 247 249 242 224 220 237 250 259 265 269 268 249 255 279 290 292 281 277 279 283 291 290 272 272 273 277 282 282 275 269 267 267 266 268 272 277 282 284 284 284 284 283 282 281 281 281 276 265 257 251 248 248 248 245 242 240 239 239 239 240 240 239 238 236 234 233 232 232 232 230
159 152 149 153 195 242 232 183 175 128 112 238 243 234 229 230 235 241 246 241 229 223 233 246 248 260 278 288 274 278 284 284 283 283 280 288 317 351 268 266 269 281 293 295 290 287 284 281 283 287 287 288 289 289 291 290 286 285 286 287 286 284 276 267 260 254 250 249 247 244 242 240 237 237 238 239 239 238 237 234 232 231 231 231 231 228
152 151 169 164 187 244 207 126 123 153 211 239 239 205 210 224 230 233 240 243 239 234 235 251 263 273 278 275 269 270 275 280 285 286 288 308 354 320 277 280 296 309 312 309 308 309 309 309 312 312 310 310 306 303 302 298 292 290 291 291 289 284 276 269 262 254 251 249 246 244 242 239 237 238 238 238 237 236 234 232 231 230 230 230 228 225
146 153 175 173 184 215 135 120 169 215 221 245 267 168 196 218 222 226 237 244 245 248 249 254 261 262 261 264 268 275 284 291 292 296 314 10 43 341 321 329 337 334 327 320 316 316 319 320 320 320 322 323 321 316 310 304 300 298 295 292 289 283 276 269 261 256 253 249 246 244 241 238 238 237 236 235 233 232 230 230 229 228 228 227 226 224
153 163 161 173 198 184 140 173 213 240 291 296 285 247 215 223 216 224 249 256 245 237 237 241 249 255 264 274 289 307 306 301 297 302 358 35 35 20 1 339 327 319 311 310 305 302 309 314 314 315 318 320 320 317 311 306 304 300 295 292 287 279 273 267 260 257 254 250 247 245 241 239 237 236 234 232 229 227 227 227 226 225 225 224 224 223
163 161 131 178 204 189 206 223 232 331 312 280 266 244 166 152 172 183 233 261 256 245 241 238 250 273 296 304 315 324 319 316 315 330 24 9 359 359 347 326 318 306 300 303 303 302 308 313 314 316 317 317 316 313 310 308 305 300 295 291 284 275 268 260 255 254 252 249 248 245 242 240 237 235 232 228 226 226 225 224 223 222 221 220 218 216
176 174 162 189 211 183 215 248 248 260 255 253 256 244 194 200 184 165 195 245 356 9 342 135 111 310 315 322 324 329 344 346 313 302 2 357 341 336 333 324 318 311 307 309 310 311 314 316 317 318 317 315 312 311 312 308 303 297 291 286 280 273 264 255 252 253 250 249 249 246 244 242 238 234 231 228 228 227 225 223 222 221 220 218 216 214
189 187 164 187 223 204 200 233 234 230 243 249 253 247 234 221 158 139 182 225 229 294 291 89 57 304 269 279 319 358 22 358 298 289 338 342 325 322 322 315 314 316 316 317 317 314 313 315 316 315 313 311 309 310 312 307 300 292 284 280 276 269 262 257 257 256 254 253 252 250 246 242 237 234 233 232 231 227 224 222 220 219 217 215 214 212
190 186 181 201 222 221 218 235 239 238 250 246 231 226 235 175 98 114 227 220 187 239 243 117 338 290 242 233 324 42 58 318 288 294 315 322 315 311 307 302 306 310 312 316 321 321 319 319 316 312 310 308 309 311 310 305 299 287 278 277 273 263 260 262 264 263 260 258 255 251 247 242 238 235 233 231 228 224 221 220 217 213 210 209 208 207
194 188 193 204 217 222 224 236 249 249 249 245 237 232 218 107 74 223 237 183 162 216 221 188 258 275 235 199 345 2 229 245 264 282 298 307 305 303 303 305 308 311 314 317 322 326 326 323 320 316 313 313 314 313 308 304 296 284 279 276 267 262 264 268 269 266 262 258 254 249 246 241 237 233 229 226 223 219 216 214 212 208 202 199 198 197
187 190 196 199 213 225 223 229 251 258 249 223 238 234 164 139 201 229 213 162 171 195 194 198 238 250 214 200 235 252 257 265 271 279 289 293 289 291 299 307 313 319 323 325 327 331 331 325 323 322 319 320 321 316 309 304 293 285 282 274 265 267 271 270 265 262 257 252 246 241 236 233 230 227 223 221 216 211 207 204 204 201 195 191 189 187
176 177 201 197 200 213 216 221 238 246 230 161 205 319 88 162 198 184 156 217 217 195 175 192 226 227 206 228 255 264 276 284 286 291 297 300 301 302 304 310 314 316 318 320 321 326 328 324 321 320 319 320 321 316 310 303 293 288 285 277 274 276 272 261 254 249 243 237 231 227 223 221 221 220 217 213 208 203 197 191 190 189 186 184 180 177
186 177 193 204 196 186 199 217 218 195 192 188 143 141 176 201 175 152 154 198 235 229 186 180 219 223 206 230 268 280 289 295 297 302 306 308 311 311 311 313 313 310 309 308 309 316 322 320 317 317 317 317 318 314 309 301 292 288 285 281 282 279 262 247 238 229 224 220 216 213 211 211 212 212 210 205 199 194 187 182 180 179 179 179 174 169
225 190 175 192 206 189 189 202 183 147 167 228 118 149 194 225 183 159 163 161 219 239 206 182 244 241 213 229 265 281 290 296 299 303 304 303 304 305 305 306 305 304 304 304 306 311 316 313 311 312 312 313 315 311 305 300 292 284 282 281 279 267 249 237 225 214 210 206 203 202 200 198 198 199 199 196 193 188 181 175 173 171 171 172 169 165
249 190 149 179 235 244 240 200 158 146 137 141 208 207 209 222 200 159 163 191 233 233 224 231 254 252 220 218 247 278 287 290 297 301 302 300 299 301 303 303 304 304 305 306 308 311 314 311 309 307 307 310 313 310 303 299 291 282 281 280 269 254 242 231 219 209 201 196 193 191 187 183 180 182 183 184 187 186 180 175 172 167 166 167 165 162
274 151 113 163 225 233 251 178 144 150 166 243 265 277 313 147 205 174 172 203 231 235 240 245 256 263 241 215 222 255 278 292 301 300 301 302 300 301 303 302 302 304 305 305 306 309 312 309 305 303 303 305 309 309 303 298 292 286 282 275 259 245 235 226 215 205 195 189 182 178 177 173 168 169 171 173 177 178 176 175 173 167 164 164 162 159
231 139 137 201 212 206 216 213 175 187 254 263 247 236 81 116 221 225 219 237 262 277 278 276 275 280 282 276 262 259 274 289 295 296 299 302 299 300 302 301 301 303 304 305 306 308 310 306 301 300 299 299 305 308 302 296 294 289 279 267 251 237 227 219 210 200 190 182 174 170 169 167 164 162 162 164 169 170 170 172 172 168 167 170 169 164
164 160 171 172 181 292 270 267 302 348 301 300 292 253 252 208 205 255 276 291 321 325 315 313 309 294 291 299 306 302 291 291 293 296 298 299 299 301 302 303 305 306 305 306 308 308 306 303 300 298 295 296 301 302 296 293 292 284 273 260 246 232 219 208 201 192 182 174 169 165 162 160 159 157 154 154 157 161 165 170 173 170 169 174 178 176
155 188 187 131 123 264 251 241 210 98 275 289 297 298 312 11 59 51 37 24 4 350 337 331 327 319 313 314 321 324 306 297 299 298 296 297 298 299 302 306 307 307 307 308 310 309 304 300 297 295 293 295 296 293 288 288 285 276 266 253 238 225 212 199 188 180 176 171 166 162 159 155 154 153 151 150 148 147 149 158 169 173 170 171 178 183
171 189 187 149 168 222 214 197 180 156 210 253 266 300 4 33 48 45 33 17 0 358 357 345 338 335 330 327 333 340 323 304 306 305 298 297 298 300 303 305 304 304 306 309 309 308 304 302 299 294 292 293 293 287 281 280 275 269 263 247 228 216 207 196 183 175 175 174 168 164 161 157 155 154 151 149 147 142 135 131 136 148 158 162 165 169
Height
807 816 821 820 820 816 814 815 816 817 818 820 824 828 830 830 832 832 829 827 824 826 826 824 825 822 820 816 810 808 807 807 807 805 803 802 801 799 798 796 794 793 789 787 789 789 790 791 792 795 796 798 801 802 804 805 806 808 809 811 813 815 818 820 821 823 825 827 828 830 831 831 832 834 835 837 838 840 841 842 844 845 846 848 850 851
810 821 822 815 813 812 810 811 813 815 816 819 823 827 829 830 832 832 830 826 824 827 826 824 825 820 817 815 809 807 806 804 802 801 799 797 798 797 795 793 791 789 787 786 787 787 788 790 790 793 794 796 797 798 800 801 802 804 806 808 809 812 814 815 816 819 820 821 822 824 825 826 829 831 832 833 834 836 838 840 841 842 844 845 847 849
820 824 817 810 811 810 811 811 811 815 817 820 824 828 830 831 833 833 830 827 825 827 826 826 827 819 813 812 807 803 801 797 795 794 793 792 794 795 792 790 789 788 787 786 785 784 785 787 788 791 792 793 794 795 797 798 800 802 804 805 807 809 810 811 813 815 816 818 820 821 823 825 827 829 830 831 832 834 835 837 838 839 841 842 844 845
827 821 812 810 810 809 812 812 812 816 819 822 825 830 832 831 833 834 830 827 826 828 828 829 829 818 809 808 803 798 796 794 792 790 789 789 790 788 786 785 786 786 786 784 783 783 784 785 787 788 789 790 792 794 796 798 799 800 802 803 804 806 807 810 811 813 815 817 820 821 823 824 826 827 829 830 831 832 832 833 835 836 837 839 840 842
821 817 812 811 809 809 813 815 814 818 823 825 824 828 830 828 831 833 830 827 826 828 830 830 828 815 805 805 799 792 794 792 789 788 787 787 785 783 782 781 782 782 782 782 781 782 783 783 784 785 786 788 790 792 793 795 797 798 800 801 803 805 807 809 810 812 815 817 819 821 822 824 825 825 826 827 827 827 828 829 830 831 833 835 836 839
816 815 813 811 810 811 814 816 816 819 826 828 825 826 825 825 829 831 830 829 831 835 832 832 835 820 804 805 801 792 791 789 786 786 785 784 783 782 781 778 779 780 780 780 779 780 781 781 783 784 785 787 788 790 791 793 795 796 798 800 802 803 805 807 809 811 813 815 816 818 819 819 820 821 821 820 820 822 823 824 826 828 830 832 833 834
816 814 813 813 812 815 816 819 819 819 827 831 829 828 824 824 828 830 830 833 838 841 834 833 842 835 814 803 800 794 792 789 785 783 782 782 781 777 776 775 776 778 778 779 779 779 780 781 783 784 784 786 787 788 790 792 794 795 797 798 800 801 802 804 806 808 810 811 813 813 814 815 815 816 815 816 818 819 821 822 824 825 826 828 829 831
817 815 815 814 815 819 820 822 821 819 827 832 829 828 823 823 828 830 831 835 839 840 838 836 839 844 829 805 796 795 794 791 785 782 780 778 776 773 772 775 775 775 776 777 778 778 780 780 781 782 783 784 786 787 790 791 792 794 795 796 797 798 800 801 803 805 806 807 808 810 811 812 812 812 813 815 817 818 820 821 822 822 823 824 825 827
817 815 816 815 818 822 821 823 824 821 825 829 828 826 823 824 828 830 833 838 842 843 844 841 839 847 837 808 798 799 797 794 787 782 778 773 773 773 772 774 774 774 775 776 776 777 778 778 779 780 782 784 785 787 788 789 791 792 793 794 795 796 797 799 800 801 803 804 805 807 808 809 809 810 812 814 815 816 817 818 819 820 820 821 822 823
820 818 818 816 817 820 823 828 828 822 822 826 827 826 825 828 831 833 837 839 845 848 845 840 837 843 833 807 801 804 798 793 785 778 778 776 774 773 772 773 773 774 775 775 776 777 777 777 778 779 781 783 784 786 787 788 790 791 792 793 793 794 794 796 797 798 800 801 803 804 805 805 807 808 810 812 813 813 814 815 815 816 817 818 819 819
822 821 821 819 818 820 824 829 829 825 824 825 826 828 831 835 835 838 842 842 847 849 842 838 835 839 836 811 800 800 792 786 782 778 779 777 775 773 772 773 774 775 776 776 776 777 777 777 778 779 780 782 783 785 786 787 788 789 790 790 791 792 793 793 795 796 797 799 800 801 802 803 804 806 808 808 809 809 810 811 811 812 813 813 815 816
822 820 822 821 821 823 823 825 827 826 826 825 826 831 836 841 842 844 848 850 852 847 840 842 841 842 841 815 794 794 789 783 782 780 778 777 775 774 773 775 776 777 777 777 776 777 778 778 778 779 779 781 782 783 784 784 785 786 787 788 789 790 791 791 793 794 795 796 797 798 799 800 801 802 804 804 804 805 806 807 808 809 810 810 811 812
824 822 824 823 822 821 820 826 832 829 827 828 829 834 841 850 853 853 856 857 855 848 842 844 843 838 831 809 792 789 784 781 782 781 778 777 776 775 776 777 778 778 778 778 778 778 779 780 779 779 778 779 780 781 782 782 783 784 785 787 787 787 788 789 790 792 793 794 794 795 796 797 798 799 800 800 801 802 803 804 805 806 806 806 807 807
829 829 828 826 824 820 817 824 833 832 830 830 828 831 840 852 860 858 860 861 853 846 845 846 842 832 817 800 790 784 777 777 780 780 779 777 777 776 777 778 778 778 780 780 780 779 780 781 780 779 778 778 778 778 780 781 782 783 784 784 785 785 787 787 788 789 790 790 791 792 793 794 795 796 796 796 797 798 799 800 801 801 801 802 802 803
830 830 825 822 819 817 816 817 820 823 827 829 826 828 832 839 846 849 851 851 845 843 847 848 839 823 807 793 787 784 780 779 779 780 782 780 779 779 777 778 778 779 780 780 780 779 779 780 780 779 779 778 777 777 778 780 781 781 782 782 782 783 784 785 786 786 787 787 789 790 790 791 791 792 792 793 793 794 795 796 797 797 797 798 798 799
828 823 816 814 813 812 814 814 812 818 827 830 827 830 831 828 829 838 845 844 843 846 847 843 831 815 802 789 783 783 780 778 778 778 780 779 780 780 778 778 779 779 779 779 779 779 778 778 778 779 778 778 778 778 778 779 779 779 779 780 780 780 782 783 783 783 784 785 786 786 787 788 788 789 790 790 790 791 792 793 793 794 795 795 796 797
825 823 817 816 815 813 813 813 812 816 822 828 830 829 827 824 822 832 846 848 848 847 841 835 823 810 804 792 780 780 779 776 777 775 774 776 779 781 778 778 779 777 776 776 777 777 777 777 778 778 778 778 778 778 777 777 776 777 777 777 778 778 779 780 780 781 781 782 782 783 784 785 786 786 786 786 787 788 790 791 791 792 792 793 794 794
812 819 821 819 818 817 816 814 815 815 816 824 829 824 821 826 825 828 841 849 852 850 840 830 820 812 812 801 782 780 782 779 776 774 772 774 778 779 777 777 777 775 775 776 776 776 776 776 776 775 775 775 775 775 774 775 775 776 776 776 776 776 776 776 777 778 779 779 779 780 780 781 782 782 783 784 785 786 787 788 788 789 789 790 791 792
800 813 822 825 823 820 817 816 819 819 817 819 821 819 821 830 833 833 839 844 850 852 839 825 820 814 809 800 786 781 782 778 774 773 773 775 777 779 778 777 776 775 775 775 775 776 775 774 773 773 773 772 773 773 773 773 774 774 775 775 775 774 774 774 775 776 776 776 776 776 777 778 779 779 780 781 783 784 784 784 785 785 786 787 789 790
796 807 819 825 824 822 819 818 822 823 821 819 819 821 822 826 829 830 834 836 840 847 840 826 821 809 794 790 787 781 778 775 775 775 776 779 780 779 777 774 773 774 775 775 775 775 774 773 771 771 771 771 771 771 771 772 773 772 773 773 773 773 773 773 773 773 773 773 773 773 774 774 775 776 778 779 780 781 780 781 783 783 784 785 786 787
796 803 814 825 827 825 820 817 818 819 819 819 821 824 824 826 829 829 830 831 830 836 839 834 825 805 785 780 777 776 777 776 778 779 779 780 780 778 775 773 772 772 773 774 774 774 774 772 770 770 770 770 770 770 770 771 771 772 772 772 772 772 772 770 770 770 770 770 770 770 770 770 772 773 775 776 777 777 777 778 780 781 783 783 783 784
796 803 813 825 827 821 814 810 811 810 810 812 815 817 818 821 827 832 835 832 826 826 830 834 827 799 777 773 771 774 778 776 776 777 776 778 776 774 772 771 771 770 770 772 772 772 772 770 770 770 769 769 769 769 769 769 770 770 771 771 771 771 769 768 768 769 769 769 768 767 766 767 769 770 771 772 773 773 774 775 777 779 781 782 781 782
791 802 811 819 821 816 811 810 812 810 806 809 811 812 814 816 819 825 832 831 827 826 823 831 828 793 766 767 770 773 775 773 774 774 773 775 773 771 772 770 771 772 771 772 772 771 770 769 769 769 768 768 768 767 768 767 767 768 768 768 769 768 766 766 767 768 770 770 768 765 764 764 765 766 767 768 768 769 771 772 774 776 778 779 780 780
788 799 807 813 817 815 811 810 812 810 809 812 812 812 815 816 813 816 822 823 825 824 822 832 831 794 764 765 769 770 771 771 773 774 773 775 775 775 776 774 774 774 773 773 772 771 770 769 769 768 767 768 766 765 765 764 764 764 764 765 765 763 763 763 765 766 768 768 767 766 765 763 762 762 763 763 764 765 767 769 771 773 774 775 777 778
788 797 803 813 820 820 819 818 816 814 814 814 812 812 811 811 814 818 820 823 825 821 819 828 826 794 767 767 770 770 772 774 775 776 776 778 778 778 778 778 778 777 775 774 772 771 771 769 768 766 766 765 764 763 763 761 761 760 759 760 760 759 759 760 762 763 763 764 764 764 764 762 761 760 758 758 759 761 763 766 768 769 770 772 774 775
788 796 798 806 816 820 820 820 817 814 815 814 810 809 809 810 813 816 819 826 826 818 815 820 814 791 770 770 774 775 778 782 780 777 778 779 779 780 780 780 779 778 777 775 774 772 771 769 767 764 762 761 761 761 760 758 758 757 756 755 754 755 756 757 758 758 758 759 759 759 760 760 759 757 755 755 755 757 759 762 764 765 767 769 771 772
791 797 795 797 803 805 807 810 810 807 810 811 809 808 811 812 811 812 817 822 818 816 816 812 805 794 776 769 774 778 782 785 782 779 778 778 778 779 780 780 779 778 777 775 773 771 769 767 765 762 760 759 759 758 757 756 755 754 754 752 752 752 753 753 754 754 754 755 756 756 755 755 755 755 755 754 754 755 756 758 760 761 763 765 767 769
793 798 796 797 800 799 801 805 806 806 807 808 809 810 813 815 815 815 814 810 808 815 815 802 800 801 786 770 771 777 783 785 781 779 779 777 778 778 778 778 777 776 775 773 771 768 766 765 763 762 760 758 757 756 754 753 752 751 751 750 750 750 749 749 750 750 751 752 752 751 750 750 752 753 754 754 753 753 753 754 756 758 760 762 763 764
793 798 796 797 801 800 801 804 805 807 808 807 809 811 812 814 816 816 811 805 806 812 806 796 799 802 789 774 770 773 781 783 780 779 778 776 777 777 776 776 774 772 771 769 768 767 766 764 763 761 760 758 756 755 753 751 749 748 747 746 746 747 746 746 746 745 746 747 747 746 745 746 748 749 750 751 750 750 749 750 753 755 757 758 759 761
793 799 798 799 802 800 800 802 804 806 809 808 808 810 811 812 811 811 809 807 808 810 803 798 801 797 785 778 772 769 774 779 779 777 775 774 775 776 775 775 772 770 768 767 767 767 766 764 763 761 759 757 755 753 751 750 748 746 745 743 743 743 742 743 742 741 742 741 740 740 741 743 744 745 746 747 746 746 747 747 749 751 753 754 756 758
794 799 801 803 807 805 799 800 804 807 808 809 810 809 809 809 808 808 809 808 810 810 804 802 804 795 781 778 776 768 768 774 777 775 772 770 772 774 774 773 771 768 767 766 766 765 765 764 762 760 757 755 753 751 750 748 746 745 743 742 741 740 739 739 738 738 738 736 735 735 736 738 740 741 742 742 742 743 743 744 746 748 750 751 753 754
795 802 805 807 810 805 798 800 807 809 811 814 813 808 806 806 804 801 801 803 805 803 801 804 805 792 776 776 778 771 767 771 773 772 769 766 768 772 773 771 768 766 764 764 763 762 761 761 760 758 756 754 752 750 748 746 745 743 741 740 738 737 737 736 735 734 733 732 733 733 732 733 734 736 737 738 739 740 741 742 743 745 747 748 749 751
795 801 805 808 808 802 796 800 806 811 816 814 802 794 796 800 798 796 795 794 793 794 798 799 793 781 774 776 778 773 769 768 768 766 765 765 768 772 771 767 766 765 764 763 762 761 760 759 758 757 756 754 753 750 748 746 744 741 739 737 736 735 734 732 731 730 729 729 729 729 729 730 731 732 733 734 736 738 739 740 741 742 744 745 747 748
796 797 801 803 803 800 799 802 807 812 810 795 780 778 786 789 791 794 792 786 783 785 789 788 782 778 777 776 775 772 768 766 765 762 763 767 770 771 768 766 767 768 767 765 762 761 760 758 757 756 754 753 751 749 747 745 743 740 738 736 734 732 730 729 727 727 726 726 726 726 727 728 728 729 730 731 733 735 735 736 737 739 741 743 744 745
798 798 799 801 800 798 801 806 808 804 793 779 771 773 776 777 781 785 784 781 782 785 785 784 781 777 774 771 770 769 769 769 767 763 765 770 771 771 772 772 771 770 768 766 764 761 758 756 754 752 751 749 748 747 745 743 740 738 736 734 732 729 727 726 724 724 723 723 724 724 724 725 725 726 727 728 730 731 731 732 734 736 739 740 741 742
797 799 799 800 800 797 801 806 802 789 779 776 774 773 774 777 780 785 786 782 780 781 782 781 778 773 771 772 773 774 774 773 769 767 769 771 770 772 775 775 773 771 767 766 764 761 757 755 753 750 748 746 745 743 741 739 737 735 733 731 729 727 725 724 722 721 721 720 721 721 722 722 723 723 724 725 727 727 728 729 731 733 736 738 739 740
793 798 800 802 800 796 797 798 793 787 783 777 770 768 772 774 775 780 784 780 778 780 780 778 777 776 776 777 778 780 776 769 764 765 768 768 767 769 772 772 772 771 767 765 763 759 757 755 752 749 747 744 742 741 738 736 734 732 730 728 726 725 724 723 720 719 717 717 717 718 719 720 721 721 722 723 723 724 724 726 729 731 733 735 736 737
790 792 795 799 797 795 798 798 796 797 791 775 765 764 766 766 766 772 777 778 783 787 784 780 781 782 781 780 780 779 773 768 766 766 769 769 768 768 769 769 769 768 766 763 760 757 755 753 750 747 745 742 740 738 737 734 732 730 727 725 724 723 722 720 718 716 715 715 715 716 717 718 718 719 720 720 720 721 723 725 727 729 730 732 733 735
791 790 792 798 797 796 800 799 795 792 781 766 761 764 765 765 765 769 776 781 785 789 786 783 783 783 781 782 782 779 776 776 775 771 771 773 771 769 769 767 765 765 763 761 758 756 753 751 749 746 743 741 738 735 734 732 730 728 725 723 722 721 719 717 716 715 714 714 714 714 714 715 715 716 716 717 718 719 721 723 725 727 729 730 732 733
792 793 794 798 796 794 797 795 788 781 771 763 762 764 765 764 765 775 784 784 784 788 786 782 781 781 781 782 783 782 781 782 779 773 771 774 773 769 768 766 764 762 760 758 756 754 751 749 747 744 741 739 736 733 732 730 728 725 723 721 720 718 715 714 714 714 714 713 713 713 713 713 713 713 713 714 716 718 720 721 723 725 727 729 731 733
790 791 791 793 793 794 795 793 787 776 765 760 761 763 764 764 770 780 783 779 783 787 785 782 781 780 780 781 782 782 781 780 778 774 772 774 773 768 765 763 761 759 757 755 753 752 749 746 743 741 739 737 735 732 730 729 726 723 721 720 717 713 711 712 713 713 713 712 712 712 712 712 712 712 713 714 716 717 719 721 723 725 726 728 730 732
787 788 787 788 789 791 789 790 789 778 764 761 762 762 764 767 772 777 776 776 782 784 782 783 782 779 779 779 779 779 778 777 776 774 772 772 770 767 764 761 758 755 752 750 749 748 747 743 740 738 735 733 733 731 729 728 725 722 720 718 715 712 711 711 711 711 711 711 711 711 712 712 713 713 714 715 716 717 719 721 723 725 726 728 730 732
777 782 784 781 781 784 787 790 789 776 765 763 763 761 764 767 769 772 774 776 778 778 780 783 781 778 778 778 776 777 776 774 774 772 769 767 766 765 763 760 757 754 752 750 748 746 745 742 738 736 733 732 731 729 728 728 725 722 720 717 714 714 712 710 709 710 710 710 711 711 711 712 713 714 714 715 716 717 719 721 723 725 726 728 730 731
768 773 776 772 771 777 782 780 774 767 764 764 763 764 767 769 769 771 773 773 774 775 776 778 778 777 777 776 776 776 774 772 771 769 767 766 763 762 761 758 756 754 751 750 749 746 745 742 738 735 732 730 730 728 727 726 724 721 719 716 715 715 713 710 709 709 709 710 710 710 711 711 712 713 714 715 716 717 718 719 721 723 725 727 729 731
760 761 763 761 762 767 767 764 763 766 768 766 765 766 767 767 769 771 771 770 772 773 773 773 775 775 776 776 775 774 772 771 770 768 768 766 762 761 760 757 755 753 750 748 747 746 744 742 738 735 731 728 728 727 725 725 723 720 717 715 715 714 713 711 710 709 709 709 710 710 711 711 712 713 715 716 717 718 718 719 720 722 724 726 728 730
757 758 758 758 759 760 759 761 764 767 769 768 767 768 768 767 769 771 771 771 771 771 771 772 772 773 775 776 775 774 772 771 769 768 767 764 762 760 758 755 753 751 749 746 744 743 742 740 737 734 730 727 726 726 724 723 722 719 716 715 715 714 713 713 711 710 710 709 709 710 710 711 712 714 715 717 718 719 720 720 720 721 723 725 727 729
759 760 760 759 760 758 759 762 764 765 767 767 766 766 767 769 771 772 771 771 771 770 771 772 771 772 774 774 774 774 772 770 769 768 765 763 761 758 756 754 751 749 748 746 743 742 741 738 736 733 729 726 724 724 723 722 721 719 717 715 714 714 714 713 712 711 711 710 709 709 710 710 712 713 715 717 719 720 721 722 722 722 723 724 726 728
757 761 762 762 761 760 761 764 766 768 767 766 765 766 767 769 771 771 772 772 771 771 772 772 772 772 772 772 774 774 773 771 769 767 764 762 760 757 754 753 750 748 746 744 742 741 739 737 734 732 728 724 722 722 722 720 719 719 717 715 714 713 713 713 713 712 712 711 711 710 710 711 712 713 715 717 718 720 721 722 722 722 722 723 724 726
757 759 761 763 764 764 764 763 765 766 764 762 765 766 766 768 771 771 773 773 773 773 773 773 773 773 772 772 773 773 773 771 769 767 764 761 759 756 754 751 748 746 744 742 741 740 738 735 733 730 727 723 720 719 719 718 718 718 716 716 715 713 713 713 713 713 713 712 712 712 712 712 713 714 716 718 720 721 722 722 722 722 722 724 724 725
759 758 759 764 767 765 762 761 761 764 764 762 762 763 765 769 771 771 773 775 775 775 775 774 773 772 772 771 772 772 772 770 768 767 765 761 758 756 753 750 747 744 741 739 738 737 735 733 731 728 725 722 719 717 715 715 716 717 716 715 714 713 713 712 712 713 714 713 713 713 713 713 714 715 717 719 721 722 723 724 724 724 724 724 725 726
756 754 755 761 763 761 760 761 762 765 765 764 762 765 769 772 772 772 774 776 776 776 776 775 774 772 771 770 770 771 770 768 767 766 764 760 757 755 752 750 747 743 740 738 735 733 731 729 728 726 724 721 719 717 713 712 713 715 716 715 714 713 713 712 712 713 714 714 715 714 714 714 714 715 717 719 720 721 722 723 724 725 726 726 726 727